This demonstration page uses our WeatherBlox Daily Observations layout. Learn more.

Left ArrowRight Arrow

Hourly Observations for April 10, 2020

Temp ( °F °C ) Dew Point ( °F °C ) Humidity (%) Winds ( mph kmh ) Pressure ( in mb ) Visibility ( mi km ) Precip ( " mm )
12:15 am 00:15 Clear 45 7 28 -2 53 53 WNW 20 31 29.61 1003 10 16.0934 0 0
12:35 am 00:35 Clear 45 7 27 -3 49 49 WNW 20 31 29.62 1003 10 16.0934 0 0
12:55 am 00:55 Clear 45 7 27 -3 49 49 WNW 15 24 29.62 1003 10 16.0934 0 0
1:15 am 01:15 Clear 45 7 25 -4 46 46 WNW 13 20 29.62 1003 10 16.0934 0 0
1:35 am 01:35 Clear 43 6 25 -4 49 49 WNW 15 24 29.62 1003 10 16.0934 0 0
1:55 am 01:55 Clear 45 7 23 -5 42 42 WNW 21 33 29.61 1003 10 16.0934 0 0
2:15 am 02:15 Clear 43 6 25 -4 49 49 WNW 14 22 29.61 1003 10 16.0934 0 0
2:35 am 02:35 Clear 43 6 25 -4 49 49 NW 20 31 29.6 1002 10 16.0934 0 0
2:55 am 02:55 Clear 43 6 25 -4 49 49 WNW 13 20 29.61 1003 10 16.0934 0 0
3:15 am 03:15 Partly Cloudy 43 6 25 -4 49 49 WNW 13 20 29.6 1002 10 16.0934 0 0
3:35 am 03:35 Partly Cloudy 43 6 25 -4 49 49 WNW 20 31 29.6 1002 10 16.0934 0 0
3:55 am 03:55 Clear 43 6 27 -3 53 53 NW 16 26 29.6 1002 10 16.0934 0 0
4:15 am 04:15 Clear 41 5 27 -3 57 57 WNW 20 31 29.61 1003 10 16.0934 0 0
4:35 am 04:35 Clear 41 5 27 -3 57 57 NW 21 33 29.6 1002 10 16.0934 0 0
4:55 am 04:55 Clear 41 5 23 -5 49 49 WNW 22 35 29.61 1003 10 16.0934 0 0
5:15 am 05:15 Clear 41 5 23 -5 49 49 NW 14 22 29.61 1003 10 16.0934 0 0
5:35 am 05:35 Clear 41 5 23 -5 49 49 NW 17 28 29.61 1003 10 16.0934 0 0
5:55 am 05:55 Clear 39 4 23 -5 52 52 WNW 15 24 29.63 1003 10 16.0934 0 0
6:15 am 06:15 Clear 37 3 23 -5 56 56 WNW 18 30 29.62 1003 10 16.0934 0 0
6:35 am 06:35 Clear 39 4 23 -5 52 52 WNW 14 22 29.62 1003 10 16.0934 0 0
6:55 am 06:55 Sunny 39 4 23 -5 52 52 WNW 16 26 29.63 1003 10 16.0934 0 0
7:15 am 07:15 Sunny 39 4 23 -5 52 52 WNW 18 30 29.64 1004 10 16.0934 0 0
7:35 am 07:35 Sunny 39 4 23 -5 52 52 WNW 16 26 29.65 1004 10 16.0934 0 0
7:55 am 07:55 Sunny 41 5 23 -5 49 49 WNW 21 33 29.64 1004 10 16.0934 0 0
8:15 am 08:15 Sunny 41 5 23 -5 49 49 W 15 24 29.65 1004 10 16.0934 0 0
8:35 am 08:35 Mostly Cloudy 43 6 25 -4 49 49 WNW 18 30 29.66 1004 10 16.0934 0 0
8:55 am 08:55 Cloudy 43 6 27 -3 53 53 WNW 20 31 29.66 1004 10 16.0934 0 0
9:15 am 09:15 Mostly Cloudy 43 6 25 -4 49 49 WNW 16 26 29.66 1004 10 16.0934 0 0
9:35 am 09:35 Mostly Cloudy 43 6 25 -4 49 49 WNW 18 30 29.68 1005 10 16.0934 0 0
9:55 am 09:55 Partly Cloudy 45 7 25 -4 46 46 WNW 20 31 29.68 1005 10 16.0934 0 0
10:15 am 10:15 Mostly Cloudy 45 7 25 -4 46 46 WNW 26 43 29.68 1005 10 16.0934 0 0
10:35 am 10:35 Cloudy 45 7 27 -3 49 49 WNW 29 46 29.69 1005 10 16.0934 0 0
10:55 am 10:55 Cloudy 45 7 27 -3 49 49 WNW 38 61 29.7 1006 10 16.0934 0 0
11:15 am 11:15 Mostly Cloudy 45 7 28 -2 53 53 NW 31 50 29.7 1006 10 16.0934 0 0
11:35 am 11:35 Mostly Cloudy 46 8 30 -1 53 53 WNW 29 46 29.72 1006 10 16.0934 0 0
11:55 am 11:55 Cloudy 45 7 28 -2 53 53 WNW 28 44 29.72 1006 10 16.0934 0 0
12:15 pm 12:15 Mostly Cloudy 45 7 30 -1 57 57 NW 30 48 29.72 1006 10 16.0934 0 0
12:35 pm 12:35 Mostly Cloudy 46 8 28 -2 50 50 NW 18 30 29.72 1006 10 16.0934 0 0
12:55 pm 12:55 Mostly Cloudy 46 8 28 -2 50 50 WNW 26 43 29.72 1006 10 16.0934 0 0
1:15 pm 13:15 Cloudy 46 8 27 -3 46 46 NW 25 41 29.72 1006 10 16.0934 0 0
1:35 pm 13:35 Cloudy 46 8 27 -3 46 46 NW 28 44 29.72 1006 10 16.0934 0 0
1:55 pm 13:55 Cloudy 48 9 27 -3 43 43 WNW 32 52 29.73 1007 10 16.0934 0 0
2:15 pm 14:15 Cloudy 48 9 27 -3 43 43 NW 32 52 29.72 1006 10 16.0934 0 0
2:35 pm 14:35 Cloudy 46 8 27 -3 46 46 NW 22 35 29.73 1007 10 16.0934 0 0
2:55 pm 14:55 Cloudy 48 9 27 -3 43 43 NNW 26 43 29.74 1007 10 16.0934 0 0
3:15 pm 15:15 Cloudy 50 10 28 -2 43 43 NW 17 28 29.76 1008 10 16.0934 0 0
3:35 pm 15:35 Cloudy 46 8 27 -3 46 46 NNW 21 33 29.76 1008 10 16.0934 0 0
3:55 pm 15:55 Cloudy 46 8 27 -3 46 46 WNW 25 41 29.76 1008 10 16.0934 0 0
4:15 pm 16:15 Cloudy 48 9 28 -2 46 46 NW 22 35 29.77 1008 10 16.0934 0 0
4:35 pm 16:35 Cloudy 50 10 27 -3 40 40 NW 35 56 29.77 1008 10 16.0934 0 0
4:55 pm 16:55 Mostly Cloudy 48 9 27 -3 43 43 NW 24 39 29.78 1008 10 16.0934 0 0
5:15 pm 17:15 Mostly Cloudy 48 9 27 -3 43 43 NNW 23 37 29.79 1009 10 16.0934 0 0
5:35 pm 17:35 Mostly Cloudy 50 10 27 -3 40 40 NW 20 31 29.8 1009 10 16.0934 0 0
5:55 pm 17:55 Cloudy 48 9 27 -3 43 43 NW 23 37 29.81 1009 10 16.0934 0 0
6:15 pm 18:15 Cloudy 46 8 27 -3 46 46 NW 24 39 29.82 1010 10 16.0934 0 0
6:35 pm 18:35 Mostly Cloudy 46 8 27 -3 46 46 NNW 16 26 29.84 1010 10 16.0934 0 0
6:55 pm 18:55 Mostly Cloudy 46 8 25 -4 43 43 NNW 20 31 29.84 1010 10 16.0934 0 0
7:15 pm 19:15 Partly Cloudy 46 8 25 -4 43 43 NNW 17 28 29.85 1011 10 16.0934 0 0
7:35 pm 19:35 Partly Cloudy 45 7 27 -3 49 49 NNW 6 9 29.86 1011 10 16.0934 0 0
7:55 pm 19:55 Partly Cloudy 45 7 25 -4 46 46 NNW 9 15 29.87 1012 10 16.0934 0 0
8:15 pm 20:15 Clear 45 7 25 -4 46 46 NNW 12 19 29.88 1012 10 16.0934 0 0
8:35 pm 20:35 Clear 43 6 25 -4 49 49 NW 6 9 29.88 1012 10 16.0934 0 0
8:55 pm 20:55 Clear 43 6 25 -4 49 49 NW 8 13 29.89 1012 10 16.0934 0 0
9:15 pm 21:15 Clear 43 6 27 -3 53 53 NW 9 15 29.9 1013 10 16.0934 0 0
9:35 pm 21:35 Clear 43 6 25 -4 49 49 NNW 7 11 29.92 1013 10 16.0934 0 0
9:55 pm 21:55 Clear 43 6 25 -4 49 49 NW 6 9 29.92 1013 10 16.0934 0 0
10:15 pm 22:15 Clear 43 6 25 -4 49 49 NW 6 9 29.92 1013 10 16.0934 0 0
10:35 pm 22:35 Clear 41 5 25 -4 53 53 NW 3 6 29.93 1014 10 16.0934 0 0
10:55 pm 22:55 Clear 39 4 27 -3 61 61 WNW 3 6 29.94 1014 10 16.0934 0 0
11:15 pm 23:15 Clear 43 6 23 -5 46 46 Calm 29.94 1014 10 16.0934 0 0
11:35 pm 23:35 Clear 39 4 27 -3 61 61 NNW 3 6 29.95 1014 10 16.0934 0 0
11:55 pm 23:55 Clear 37 3 27 -3 65 65 NW 10 17 29.95 1014 10 16.0934 0 0

Powered by AerisWeather